Saratmata, Vanuatu

6:04 PM VUT on December 10, 2016 (GMT +1100)
Saratmata

Weather History for 91554 - September, 2013

Change the Weather History Date:

Thursday, September 5, 2013

  Actual Average Record
Temperature  
Mean Temperature 69 °F -  
Max Temperature 79 °F - - ()
Min Temperature 59 °F - - ()
Cooling Degree Days 4    
Growing Degree Days 19 (Base 50)    
Moisture  
Dew Point 61 °F    
Average Humidity 58    
Maximum Humidity 83    
Minimum Humidity 39    
Precipitation  
Precipitation 0.00 in - - ()
Sea Level Pressure  
Sea Level Pressure 29.93 in    
Wind  
Wind Speed 9 mph ()    
Max Wind Speed 16 mph    
Max Gust Speed -    
Visibility 8.5 miles    
Events      
T = Trace of Precipitation, MM = Missing Value Source: Averaged Metar Reports

Daily Weather History Graph

Daily Weather History Graph

Search for Another Location

Airport or City:

Trip Planner

Search our weather history database for the weather conditions in past years. The results will help you decide how hot, cold, wet, or windy it might be!

Date:

Astronomy

Sep. 05, 2013 Rise Set
Actual Time 5:54 AM VUT 5:45 PM VUT
Civil Twilight 5:32 AM VUT 6:07 PM VUT
Nautical Twilight 5:07 AM VUT 6:32 PM VUT
Astronomical Twilight 4:42 AM VUT 6:57 PM VUT
Moon 5:18 AM VUT (9/5) 5:29 PM VUT (9/5)
Length of Visible Light 12h 34m
Length of Day
11h 51m
Waning Crescent, 0% of the Moon is Illuminated
Sep 5
Waning Crescent
Sep 5
New
Sep 13
First Quarter
Sep 19
Full
Sep 27
Last Quarter

Hourly Weather History & Observations

Time (VUT) Temp. Heat Index Dew Point Humidity Pressure Visibility Wind Dir Wind Speed Gust Speed Precip Events Conditions
5:00 AM 67 °F - 62 °F 81% 29.91 in 12 mi SE 4.6 mph - -   Partly Cloudy
5:00 AM 66.2 °F - 60.8 °F 83% 29.89 in 6.2 mi SE 4.6 mph - N/A   Partly Cloudy
8:00 AM 75 °F - 62 °F 54% 29.97 in 12 mi ESE 12.7 mph - -   Partly Cloudy
8:00 AM 75.2 °F - 60.8 °F 61% 29.95 in 6.2 mi ESE 12.7 mph - N/A   Mostly Cloudy
9:00 AM 77.0 °F - 60.8 °F 57% 29.98 in 6.2 mi East 13.8 mph - N/A   Mostly Cloudy
10:00 AM 77.0 °F - 59.0 °F 54% 29.98 in - ESE 11.5 mph - N/A   Scattered Clouds
11:00 AM 79 °F - 64 °F 51% 29.96 in 12 mi ESE 11.5 mph - -   Partly Cloudy
11:00 AM 78.8 °F - 64.4 °F 61% 29.95 in 6.2 mi ESE 11.5 mph - N/A   Mostly Cloudy
12:00 PM 78.8 °F - 57.2 °F 47% 29.92 in 6.2 mi East 11.5 mph - N/A   Mostly Cloudy
2:00 PM 80 °F - 60 °F 39% 29.90 in 12 mi ESE 16.1 mph - -   Partly Cloudy
2:00 PM 80.6 °F 81.1 °F 59.0 °F 48% 29.89 in 6.2 mi ESE 16.1 mph - N/A   Mostly Cloudy
3:00 PM 77.0 °F - 57.2 °F 50% 29.89 in 6.2 mi East 11.5 mph - N/A   Mostly Cloudy
4:00 PM 78.8 °F - 59.0 °F 51% 29.89 in 6.2 mi East 16.1 mph - N/A   Mostly Cloudy
5:00 PM 78 °F - 59 °F 41% 29.91 in 12 mi East 16.1 mph - -   Partly Cloudy
5:00 PM 77.0 °F - 57.2 °F 50% 29.89 in 6.2 mi East 16.1 mph - N/A   Partly Cloudy
8:00 PM 75 °F - 64 °F 60% 29.96 in 12 mi East 11.5 mph - -   Partly Cloudy
8:00 PM 75.2 °F - 62.6 °F 65% 29.95 in 6.2 mi East 11.5 mph - N/A   Partly Cloudy
11:00 PM 73 °F - 65 °F 69% 29.97 in 12 mi East 9.2 mph - -   Partly Cloudy
11:00 PM 73.4 °F - 64.4 °F 73% 29.95 in 6.2 mi East 9.2 mph - N/A   Partly Cloudy